Location: Albany
(35.0000°S, 118.0000°E)
Time: 10:06:23
(UTC-05:00)

ERS-1 Rocket - Visible Passes

Search period start: 07 February 2016 00:00
Search period end: 17 February 2016 00:00
Orbit: 754 x 758 km, 98.7° (Epoch: 07 February)

Date Brightness Start Highest point End Pass type
(mag) Time Alt. Az. Time Alt. Az. Time Alt. Az.
07 Feb 3.9 07:06:04 10° SE 07:10:23 27° E 07:14:00 13° NNE visible
07 Feb 4.8 08:44:43 10° S 08:49:03 29° WSW 08:53:21 10° NW visible
08 Feb 3.1 08:04:48 10° S 08:09:54 73° WSW 08:13:59 16° NNW visible
09 Feb 3.3 07:25:38 10° SSE 07:30:29 44° E 07:33:58 18° NNE visible
09 Feb 5.4 09:05:23 10° SSW 09:08:52 19° WSW 09:12:21 10° WNW visible
10 Feb 4.4 06:47:34 10° SE 06:50:52 17° E 06:53:57 11° NE visible
10 Feb 4.0 08:25:00 10° S 08:29:50 45° WSW 08:33:57 14° NW visible
11 Feb 2.9 07:45:27 10° SSE 07:50:32 71° ENE 07:53:55 21° N visible
11 Feb 5.8 09:26:44 10° SW 09:28:38 12° WSW 09:30:33 10° W visible
12 Feb 3.9 07:06:44 10° SE 07:11:02 27° E 07:13:53 17° NE visible
12 Feb 4.8 08:45:22 10° S 08:49:42 29° WSW 08:53:52 11° NW visible
13 Feb 4.8 06:30:42 10° E 06:31:18 10° E 06:31:55 10° E visible
13 Feb 3.1 08:05:27 10° S 08:10:32 73° WSW 08:13:50 22° NNW visible
14 Feb 3.3 07:26:17 10° SSE 07:31:08 44° E 07:33:47 24° NNE visible
14 Feb 5.4 09:06:02 10° SSW 09:09:32 19° WSW 09:12:59 10° WNW visible
15 Feb 4.4 06:48:13 10° SE 06:51:31 17° E 06:53:44 13° NE visible
15 Feb 4.0 08:25:38 10° S 08:30:28 45° WSW 08:33:44 19° NW visible
16 Feb 2.8 07:46:06 10° SSE 07:51:11 71° ENE 07:53:41 30° N visible
16 Feb 5.8 09:27:24 10° SW 09:29:17 12° WSW 09:31:10 10° W visible
